User: anonymous   Login
Location: Unspecified
(0.0000°N, 0.0000°E)
Time: 01:07:38
(UTC+00:00)
Language:

BRITE-PL 2 - Orbit

View from above orbital plane
View from above orbital plane
View from above satellite
View from above satellite

Ground track
Ground track

The orbit data is extracted from the following two-line orbital elements,

1 40119U 14049B   18200.83602412  .00000094  00000-0  17697-4 0  9997
2 40119  97.9182 289.1981 0016426 228.1191 131.8622 14.84305042212148
Epoch (UTC): 19 July 2018 20:03:52
Eccentricity: 0.0016426
inclination: 97.9182°
perigee height: 604 km
apogee height: 627 km
right ascension of ascending node: 289.1981°
argument of perigee: 228.1191°
revolutions per day: 14.84305042
mean anomaly at epoch: 131.8622°
orbit number at epoch: 21214

The dashed part of the orbit path shows where the satellite is in the earth's shadow,  

DLR